星链-30401 (STARLINK-30401 )

导读

STARLINK-30401是美国太空探索技术公司星链互联网星座的一员,于2023年9月9日发射入轨。该卫星旨在为全球提供高速低延迟互联网服务,尤其覆盖偏远与网络基础设施匮乏地区。星链系统通过大量低轨卫星组网,持续拓展星座规模,推动全球互联网普及,Starlink-30401也为星座服务能力提升添砖加瓦。

基本信息
目录编号:
57818
目录名称:
STARLINK-30401
国际标识:
2023-138L
轨道中心:
EARTH
卫星名称:
星链-30401
卫星全名:
星链-30401 (STARLINK-30401 )
卫星状态:
在轨 (已飞行1091 天)
发射日期:
2023-09-09 UTC
国别 :
美国 (US)
星等 :
--
轨道信息
数据来源 国际轨道数据 AOE轨道数据
星历时间 2026-09-04T12:32:30+0800
6小时前
查看轨道信息
2026-09-02T08:00:00+0800
2天前
查看轨道信息
半长轴 6861.206km 6861.127km
偏心率 0.0001127 0.0001762
轨道倾角 43.002° 43.000°
近地点辐角 293.542° 349.157°
升交点赤经 306.435° 318.800°
平近点角 66.531° 197.608°
近地点 482.295km 481.781km
远地点 483.843km 484.199km
周期 94.267分钟 94.266分钟
每日圈数 15.275735 15.275999
详细信息
固有亮度:
5
最大亮度:
0.3
卫星平台:
Starlink v2.0 mini
覆盖范围:
全球
运营商:
太空探索技术公司
运营商所在国:
美国
制造商(研发单位):
太空探索技术公司
制造商所在国:
美国
使用方式:
暂无
卫星简介
星链(Starlink)计划是由太空探索技术公司(SpaceX)提出的一个巨型低轨卫星互联网星座项目,计划在2019年至2024年间在太空搭建由约1.2万颗卫星组成的“星链”网络,其中1584颗将部署在地球上空550千米处的近地轨道,并从2020年开始工作。该卫星仍在工作。
2D轨道图
3D轨道图
轨道高度分析图
轨道倾角分析图
轨道综合分析图
查看轨道综合分析图
交会数据列表
事件ID 空间交会对象 最接近时刻(TCA) 交会距离 交会风险概率(CRP) 交会风险指数(CRI) 操作
CDM_260905-082505-781805-936421
2026-09-05T
08:25:05+0000
0.519 km
远距离
4.604914E-5 中风险 0.68
CDM_260831-085705-781806-762921
2026-08-31T
08:57:49+0000
0.902 km
远距离
2.429197E-5 中风险 0.63
CDM_260905-095905-781805-936421
2026-09-05T
09:59:14+0000
0.801 km
远距离
1.162557E-5 中风险 0.56
CDM_260905-065005-781805-936421
2026-09-05T
06:50:56+0000
1.270 km
极远距离
2.476014E-6 低风险 0.43
CDM_260905-113305-781805-936421
2026-09-05T
11:33:24+0000
1.679 km
极远距离
1.089122E-6 低风险 0.36
CDM_260904-144304-378405-781821
SNUGLITE (43784)
2026-09-04T
14:43:30+0000
2.580 km
极远距离
1.073284E-6 低风险 0.36
CDM_260905-143705-781805-978521
2026-09-05T
14:37:34+0000
1.978 km
极远距离
1.040671E-6 低风险 0.35
CDM_260905-135405-781805-936421
2026-09-05T
13:54:37+0000
1.770 km
极远距离
9.520363E-7 极低风险 0.35
CDM_260905-051605-781805-936421
2026-09-05T
05:16:46+0000
2.140 km
极远距离
6.259637E-7 极低风险 0.31
CDM_260905-130705-781805-936421
2026-09-05T
13:07:33+0000
2.626 km
极远距离
4.503504E-7 极低风险 0.28